Temp
-7 -6 -6 -6 -6 -6 -6 -6 -6 -6 -6 -6 -6 -6 -6 -6 -7 -7 -7 -6 -7 -7 -7 -7 -7 -7 -7 -7 -7 -7 -7 -7 -7 -7 -7 -7 -7 -7 -7 -7 -7 -7 -7 -7 -7 -7 -8 -8 -8 -8 -8 -8 -8 -8 -8 -8 -8 -8 -8 -8 -8 -8 -8
-6 -6 -6 -6 -6 -6 -6 -7 -7 -6 -6 -6 -6 -6 -6 -6 -6 -7 -7 -6 -7 -7 -7 -7 -7 -7 -7 -7 -7 -7 -7 -7 -7 -7 -7 -7 -7 -7 -7 -7 -7 -7 -7 -7 -7 -8 -8 -8 -8 -8 -8 -8 -8 -8 -8 -8 -8 -8 -8 -8 -8 -8 -8
-6 -6 -6 -5 -5 -6 -6 -6 -7 -7 -7 -7 -6 -6 -6 -6 -6 -6 -7 -7 -7 -7 -7 -7 -7 -7 -7 -7 -7 -7 -7 -7 -7 -7 -7 -7 -8 -8 -8 -8 -8 -8 -8 -8 -8 -8 -8 -8 -8 -8 -8 -8 -8 -8 -8 -8 -8 -8 -8 -8 -8 -8 -8
-7 -7 -6 -6 -5 -6 -6 -6 -7 -7 -7 -7 -6 -6 -6 -6 -6 -7 -7 -7 -7 -7 -7 -7 -7 -7 -7 -7 -7 -7 -7 -7 -8 -8 -8 -8 -8 -8 -8 -8 -8 -8 -8 -8 -8 -8 -8 -8 -8 -8 -8 -8 -8 -8 -8 -8 -8 -8 -8 -8 -8 -8 -9
-7 -7 -7 -7 -6 -6 -6 -6 -7 -7 -7 -7 -6 -6 -6 -6 -6 -7 -7 -7 -7 -7 -7 -7 -7 -7 -7 -7 -7 -7 -7 -7 -8 -8 -8 -8 -8 -8 -8 -8 -8 -8 -8 -8 -8 -8 -8 -8 -8 -8 -8 -8 -8 -8 -8 -8 -8 -8 -9 -9 -9 -9 -9
-7 -7 -7 -7 -7 -6 -6 -6 -7 -7 -7 -7 -6 -6 -6 -6 -7 -7 -7 -7 -7 -7 -7 -7 -7 -7 -7 -7 -7 -8 -8 -8 -8 -8 -8 -8 -8 -8 -8 -8 -8 -8 -8 -8 -8 -8 -8 -8 -8 -8 -8 -8 -8 -8 -8 -8 -8 -8 -9 -9 -9 -9 -9
-7 -7 -7 -7 -7 -7 -6 -6 -7 -7 -7 -7 -7 -7 -6 -6 -7 -7 -7 -7 -7 -7 -7 -7 -8 -8 -8 -8 -8 -8 -8 -8 -8 -8 -8 -8 -8 -8 -8 -8 -8 -8 -8 -8 -8 -8 -8 -8 -8 -8 -8 -8 -8 -8 -8 -8 -8 -9 -9 -9 -9 -9 -9
-7 -7 -7 -7 -7 -7 -7 -7 -7 -7 -7 -7 -7 -7 -7 -7 -7 -7 -7 -7 -7 -7 -7 -7 -8 -8 -8 -8 -8 -8 -8 -8 -8 -8 -8 -8 -8 -8 -8 -8 -8 -8 -8 -8 -9 -9 -9 -9 -9 -9 -8 -8 -8 -8 -8 -9 -9 -9 -9 -9 -9 -9 -9
-7 -7 -7 -7 -7 -7 -7 -7 -7 -7 -7 -7 -7 -7 -7 -7 -7 -7 -7 -7 -7 -7 -7 -7 -8 -8 -8 -8 -8 -8 -8 -8 -8 -8 -8 -8 -8 -8 -8 -8 -8 -8 -8 -8 -8 -8 -8 -8 -8 -8 -9 -9 -9 -9 -9 -9 -9 -9 -9 -9 -9 -10 -10
-7 -7 -8 -7 -7 -7 -7 -7 -7 -7 -7 -7 -7 -7 -7 -7 -7 -7 -7 -7 -7 -7 -7 -7 -8 -8 -8 -8 -8 -8 -8 -8 -8 -8 -9 -9 -8 -9 -9 -8 -8 -8 -8 -8 -8 -8 -8 -8 -8 -8 -8 -9 -9 -9 -9 -9 -9 -9 -9 -9 -10 -10 -10
-7 -7 -8 -7 -7 -7 -7 -7 -7 -7 -7 -7 -7 -7 -7 -7 -7 -7 -7 -7 -7 -7 -7 -8 -8 -8 -8 -9 -9 -8 -8 -8 -9 -9 -9 -9 -9 -9 -9 -9 -8 -8 -8 -8 -8 -8 -8 -8 -8 -8 -9 -9 -9 -9 -9 -9 -9 -9 -10 -9 -10 -10 -10
-7 -7 -7 -7 -7 -7 -7 -7 -7 -7 -7 -7 -7 -7 -7 -7 -7 -7 -7 -7 -7 -8 -8 -8 -8 -8 -8 -9 -9 -9 -9 -9 -9 -9 -9 -9 -9 -9 -9 -9 -8 -8 -8 -8 -8 -9 -9 -9 -9 -9 -9 -9 -9 -9 -9 -9 -9 -10 -10 -10 -10 -10 -10
-7 -7 -7 -7 -7 -8 -8 -7 -7 -7 -7 -7 -7 -7 -7 -6 -6 -6 -7 -7 -7 -8 -8 -8 -8 -8 -9 -9 -9 -9 -9 -9 -9 -9 -9 -9 -9 -9 -9 -9 -9 -9 -9 -9 -9 -9 -9 -9 -9 -9 -9 -9 -9 -9 -9 -9 -9 -9 -10 -10 -10 -10 -10
-7 -7 -8 -8 -8 -8 -7 -7 -7 -7 -6 -6 -6 -6 -6 -6 -6 -6 -6 -6 -7 -7 -7 -8 -8 -9 -9 -9 -9 -10 -10 -10 -10 -9 -9 -9 -9 -9 -9 -9 -9 -9 -9 -9 -9 -9 -9 -9 -9 -9 -9 -10 -9 -9 -9 -10 -10 -10 -10 -10 -10 -11 -11
-7 -7 -7 -7 -7 -7 -7 -7 -7 -7 -6 -6 -6 -6 -6 -6 -6 -6 -6 -7 -7 -7 -7 -8 -8 -9 -9 -9 -9 -10 -10 -10 -10 -10 -9 -9 -9 -9 -9 -9 -9 -9 -9 -9 -9 -10 -10 -10 -10 -10 -10 -10 -10 -10 -10 -10 -10 -10 -10 -10 -11 -11 -11
-8 -8 -7 -6 -6 -6 -6 -7 -7 -7 -7 -6 -6 -6 -6 -6 -6 -6 -6 -7 -7 -7 -7 -8 -9 -9 -9 -9 -9 -9 -10 -10 -10 -10 -9 -9 -9 -9 -9 -9 -9 -9 -9 -10 -10 -10 -10 -10 -10 -10 -10 -10 -10 -10 -10 -10 -10 -10 -11 -11 -11 -11 -11
-8 -9 -8 -7 -7 -7 -7 -7 -7 -6 -6 -6 -6 -6 -6 -6 -6 -7 -7 -7 -7 -7 -7 -8 -9 -9 -9 -9 -9 -9 -10 -10 -10 -10 -9 -9 -9 -10 -10 -10 -10 -10 -10 -10 -10 -10 -10 -10 -10 -10 -10 -10 -10 -10 -10 -11 -11 -11 -11 -11 -11 -11 -11
-8 -9 -8 -8 -8 -7 -7 -7 -6 -6 -6 -6 -6 -6 -7 -7 -7 -7 -6 -6 -7 -8 -8 -9 -9 -9 -9 -9 -9 -9 -10 -10 -10 -10 -10 -10 -10 -10 -10 -10 -10 -10 -10 -10 -10 -10 -10 -10 -10 -11 -11 -10 -10 -10 -10 -11 -11 -11 -11 -11 -11 -11 -12
-8 -8 -8 -8 -8 -7 -7 -7 -6 -6 -6 -6 -6 -6 -7 -7 -7 -7 -7 -7 -7 -7 -8 -9 -9 -9 -9 -9 -9 -10 -10 -10 -10 -10 -10 -10 -10 -10 -10 -10 -10 -10 -10 -10 -10 -10 -11 -11 -11 -11 -11 -11 -10 -10 -11 -11 -11 -11 -11 -11 -12 -12 -12
-8 -8 -7 -7 -7 -7 -7 -7 -7 -6 -6 -6 -6 -6 -7 -7 -7 -7 -7 -7 -7 -8 -8 -9 -8 -8 -9 -10 -10 -10 -10 -10 -10 -10 -11 -11 -11 -11 -11 -10 -10 -10 -10 -10 -10 -11 -11 -11 -11 -11 -11 -11 -11 -11 -11 -11 -11 -11 -12 -12 -12 -12 -13
-8 -7 -7 -7 -7 -7 -7 -7 -7 -7 -7 -7 -6 -6 -7 -7 -7 -7 -7 -7 -8 -8 -8 -9 -8 -8 -9 -10 -10 -10 -10 -10 -10 -11 -11 -11 -11 -11 -10 -10 -10 -10 -10 -11 -11 -11 -11 -11 -11 -11 -11 -11 -11 -11 -11 -11 -11 -12 -12 -12 -12 -12 -13
-8 -8 -8 -7 -7 -7 -7 -7 -7 -7 -7 -7 -7 -7 -7 -7 -7 -7 -7 -7 -8 -8 -8 -9 -9 -9 -9 -10 -10 -10 -10 -10 -10 -11 -11 -11 -11 -11 -11 -10 -10 -11 -11 -11 -11 -11 -11 -11 -11 -11 -11 -11 -11 -12 -12 -11 -11 -12 -12 -12 -12 -12 -13
-8 -8 -8 -8 -7 -7 -7 -7 -7 -7 -6 -7 -7 -7 -7 -7 -8 -7 -7 -7 -8 -7 -8 -9 -9 -9 -9 -10 -10 -10 -10 -10 -11 -11 -11 -11 -11 -11 -11 -11 -11 -11 -11 -11 -11 -11 -11 -11 -11 -11 -11 -11 -12 -12 -12 -12 -12 -12 -12 -12 -12 -12 -13
-8 -8 -8 -8 -8 -7 -7 -7 -6 -6 -6 -7 -7 -7 -7 -7 -8 -8 -8 -7 -7 -7 -8 -9 -9 -9 -9 -9 -9 -10 -10 -11 -11 -11 -11 -11 -11 -11 -12 -12 -12 -12 -11 -11 -11 -11 -11 -11 -11 -11 -11 -12 -12 -12 -12 -12 -12 -12 -12 -12 -12 -13 -13
-8 -8 -7 -7 -8 -8 -7 -7 -6 -6 -7 -7 -7 -7 -8 -8 -8 -8 -8 -8 -8 -8 -9 -9 -9 -9 -9 -9 -10 -10 -11 -11 -11 -11 -11 -11 -11 -12 -12 -12 -12 -12 -12 -11 -12 -12 -12 -12 -12 -12 -12 -12 -12 -12 -12 -12 -12 -12 -12 -12 -12 -13 -13
-8 -8 -7 -7 -7 -7 -7 -7 -7 -7 -7 -8 -8 -7 -8 -8 -8 -8 -8 -9 -9 -9 -9 -9 -9 -9 -10 -10 -10 -10 -11 -11 -11 -11 -11 -11 -12 -12 -12 -12 -12 -12 -12 -12 -12 -12 -12 -12 -12 -12 -12 -12 -13 -13 -13 -12 -12 -12 -12 -12 -13 -13 -13
-8 -8 -8 -7 -7 -7 -7 -7 -7 -7 -7 -8 -8 -8 -8 -8 -8 -8 -9 -9 -9 -9 -9 -10 -10 -10 -10 -10 -10 -10 -11 -11 -11 -11 -11 -12 -12 -12 -12 -12 -12 -12 -12 -12 -12 -12 -12 -12 -12 -12 -12 -13 -13 -13 -13 -13 -13 -13 -13 -13 -13 -13 -13
-8 -8 -8 -8 -8 -8 -8 -8 -8 -8 -8 -8 -8 -8 -8 -8 -8 -8 -9 -9 -9 -9 -9 -10 -10 -10 -10 -10 -10 -11 -11 -11 -11 -11 -12 -12 -12 -12 -12 -12 -12 -12 -12 -12 -12 -12 -13 -13 -13 -13 -13 -13 -13 -13 -13 -13 -13 -13 -13 -13 -13 -13 -14
-8 -8 -8 -8 -8 -8 -8 -8 -8 -8 -8 -8 -8 -9 -9 -9 -9 -9 -9 -9 -9 -9 -10 -10 -10 -10 -11 -11 -11 -10 -11 -11 -11 -12 -12 -12 -12 -12 -12 -12 -12 -12 -12 -12 -12 -13 -13 -13 -13 -13 -13 -13 -13 -13 -13 -13 -13 -14 -14 -14 -14 -14 -14
-9 -8 -8 -8 -8 -8 -8 -8 -8 -8 -8 -8 -8 -9 -9 -9 -10 -9 -9 -10 -10 -10 -10 -10 -11 -11 -11 -11 -11 -10 -11 -11 -12 -12 -12 -12 -12 -12 -13 -13 -13 -12 -12 -12 -13 -13 -13 -13 -13 -13 -13 -13 -13 -13 -13 -13 -14 -14 -14 -14 -14 -14 -14
-9 -9 -9 -8 -9 -8 -8 -8 -8 -8 -8 -8 -9 -9 -9 -9 -10 -10 -10 -10 -10 -10 -11 -11 -11 -11 -11 -11 -11 -11 -11 -12 -12 -13 -13 -12 -12 -13 -13 -13 -13 -13 -12 -13 -13 -13 -13 -13 -13 -13 -13 -13 -13 -13 -13 -14 -14 -14 -14 -14 -14 -14 -14
-9 -9 -9 -9 -9 -9 -8 -8 -8 -8 -8 -8 -9 -9 -10 -10 -10 -10 -10 -10 -11 -11 -11 -11 -12 -12 -12 -11 -11 -12 -12 -12 -13 -13 -13 -13 -13 -13 -13 -13 -13 -13 -12 -12 -13 -13 -13 -13 -13 -13 -13 -13 -14 -14 -14 -14 -14 -14 -14 -14 -14 -14 -14
-9 -9 -9 -9 -9 -9 -9 -9 -9 -9 -9 -9 -9 -9 -9 -10 -10 -10 -10 -11 -11 -11 -12 -12 -12 -12 -12 -12 -12 -12 -12 -13 -13 -13 -13 -13 -13 -13 -13 -13 -13 -13 -13 -12 -12 -13 -13 -13 -13 -13 -13 -14 -14 -14 -14 -14 -14 -14 -14 -14 -14 -14 -14
-9 -9 -9 -9 -9 -9 -9 -9 -9 -9 -9 -9 -9 -9 -10 -10 -10 -10 -10 -11 -11 -12 -12 -12 -12 -12 -13 -13 -13 -13 -13 -13 -13 -14 -14 -13 -13 -13 -13 -13 -13 -13 -12 -12 -13 -13 -13 -13 -13 -14 -14 -14 -14 -14 -14 -14 -14 -15 -15 -14 -14 -14 -15
-9 -9 -9 -10 -10 -10 -10 -9 -9 -9 -9 -9 -9 -10 -10 -10 -10 -10 -11 -11 -11 -12 -12 -12 -12 -13 -13 -13 -13 -13 -13 -13 -13 -13 -13 -13 -13 -13 -13 -12 -12 -12 -12 -13 -13 -13 -13 -14 -14 -14 -14 -14 -14 -14 -15 -15 -15 -15 -15 -15 -15 -15 -15
-10 -10 -10 -10 -10 -10 -10 -10 -9 -9 -10 -10 -10 -10 -10 -10 -10 -10 -11 -11 -11 -12 -12 -12 -12 -13 -13 -13 -13 -13 -13 -13 -13 -12 -12 -12 -12 -12 -12 -12 -12 -12 -13 -13 -13 -14 -14 -14 -14 -14 -15 -15 -15 -15 -15 -15 -15 -15 -15 -15 -15 -15 -15
-10 -10 -10 -10 -10 -10 -10 -10 -10 -10 -10 -10 -10 -10 -10 -10 -10 -11 -11 -11 -12 -12 -12 -12 -12 -12 -13 -12 -12 -12 -12 -12 -12 -12 -12 -12 -12 -12 -12 -12 -12 -13 -13 -13 -14 -14 -14 -14 -14 -15 -15 -15 -15 -15 -15 -15 -15 -15 -15 -15 -15 -15 -15
-10 -10 -10 -10 -10 -10 -10 -10 -10 -10 -10 -10 -10 -11 -11 -11 -11 -11 -11 -12 -12 -12 -13 -13 -13 -13 -13 -12 -12 -12 -12 -12 -12 -12 -12 -12 -12 -12 -12 -13 -13 -13 -13 -14 -14 -14 -14 -14 -15 -15 -15 -15 -15 -15 -15 -15 -15 -15 -15 -15 -15 -15 -15
Height
5908 5908 5910 5912 5914 5915 5916 5916 5916 5915 5915 5916 5915 5914 5914 5914 5913 5912 5912 5911 5911 5911 5911 5910 5910 5909 5909 5909 5908 5908 5908 5907 5906 5905 5904 5903 5901 5899 5898 5896 5895 5893 5891 5889 5888 5886 5885 5883 5881 5880 5878 5876 5874 5873 5871 5869 5867 5865 5863 5861 5859 5857 5854
5908 5907 5907 5909 5911 5912 5913 5913 5913 5913 5913 5913 5913 5912 5911 5911 5911 5910 5909 5908 5908 5908 5907 5907 5906 5906 5906 5906 5905 5905 5905 5904 5903 5902 5901 5900 5898 5896 5895 5893 5891 5890 5888 5886 5884 5883 5881 5879 5878 5876 5874 5873 5871 5869 5867 5866 5864 5862 5860 5858 5855 5853 5850
5905 5905 5905 5906 5907 5909 5910 5910 5910 5911 5911 5911 5911 5910 5909 5909 5908 5907 5906 5906 5905 5905 5905 5904 5903 5903 5902 5902 5902 5902 5902 5901 5900 5899 5898 5897 5895 5893 5892 5890 5888 5886 5884 5882 5880 5879 5877 5876 5874 5872 5871 5869 5867 5866 5864 5862 5860 5858 5856 5853 5851 5848 5846
5902 5902 5902 5902 5904 5905 5908 5908 5907 5908 5909 5908 5908 5908 5907 5907 5906 5905 5904 5903 5902 5902 5902 5901 5900 5899 5899 5899 5900 5899 5899 5898 5897 5896 5895 5894 5892 5891 5889 5887 5885 5882 5880 5878 5877 5875 5874 5872 5871 5869 5867 5866 5864 5862 5860 5858 5856 5853 5851 5849 5846 5844 5841
5900 5901 5900 5900 5901 5902 5905 5905 5905 5905 5906 5906 5906 5905 5905 5905 5904 5903 5901 5900 5899 5899 5899 5898 5897 5896 5896 5897 5897 5896 5896 5895 5894 5893 5892 5891 5889 5887 5885 5883 5881 5879 5876 5874 5873 5871 5870 5868 5866 5865 5863 5861 5859 5857 5855 5853 5851 5849 5847 5844 5842 5839 5837
5901 5901 5901 5899 5899 5900 5902 5903 5903 5903 5903 5903 5903 5902 5902 5902 5901 5900 5899 5897 5897 5896 5896 5895 5894 5893 5893 5894 5894 5893 5892 5891 5890 5889 5888 5887 5885 5883 5881 5879 5877 5875 5873 5871 5869 5868 5866 5864 5862 5861 5859 5857 5855 5853 5851 5849 5847 5844 5842 5840 5837 5835 5832
5899 5899 5899 5899 5898 5898 5900 5901 5902 5901 5901 5900 5900 5900 5899 5899 5898 5897 5896 5895 5894 5893 5892 5891 5891 5890 5890 5890 5890 5889 5888 5887 5886 5885 5884 5883 5881 5879 5876 5875 5874 5872 5870 5868 5866 5864 5863 5861 5859 5857 5855 5853 5851 5849 5847 5844 5842 5839 5837 5835 5832 5830 5827
5896 5896 5896 5896 5896 5896 5897 5898 5899 5899 5898 5898 5898 5897 5897 5896 5895 5894 5893 5892 5891 5890 5889 5888 5888 5888 5887 5886 5886 5885 5884 5883 5882 5880 5879 5878 5876 5874 5872 5871 5870 5869 5868 5866 5864 5862 5859 5857 5855 5853 5851 5849 5847 5845 5842 5839 5837 5834 5832 5829 5827 5825 5822
5895 5895 5894 5894 5894 5895 5894 5895 5896 5896 5896 5896 5895 5895 5894 5893 5892 5891 5890 5889 5887 5886 5886 5885 5885 5885 5884 5882 5882 5881 5880 5879 5877 5876 5875 5874 5872 5870 5869 5868 5867 5866 5865 5863 5861 5859 5856 5854 5852 5850 5847 5844 5842 5839 5837 5834 5832 5829 5827 5824 5822 5819 5817
5892 5893 5892 5892 5893 5893 5893 5893 5893 5894 5893 5893 5892 5891 5890 5889 5888 5888 5887 5886 5884 5883 5882 5883 5883 5882 5880 5878 5877 5877 5876 5875 5873 5872 5872 5871 5869 5868 5866 5865 5864 5862 5861 5859 5857 5855 5852 5850 5847 5845 5843 5840 5838 5835 5832 5830 5828 5825 5821 5819 5817 5814 5811
5889 5890 5890 5889 5890 5891 5891 5892 5892 5892 5891 5890 5889 5888 5886 5884 5883 5883 5883 5882 5880 5879 5879 5880 5880 5879 5876 5874 5873 5873 5872 5871 5871 5870 5869 5868 5867 5865 5863 5861 5859 5858 5857 5855 5852 5850 5847 5844 5842 5840 5838 5836 5834 5831 5828 5825 5823 5820 5816 5814 5811 5808 5805
5886 5887 5887 5887 5887 5888 5888 5889 5889 5889 5888 5887 5886 5885 5883 5881 5879 5879 5878 5878 5876 5875 5876 5877 5876 5875 5872 5870 5869 5869 5869 5868 5868 5867 5866 5865 5863 5861 5859 5857 5855 5854 5852 5850 5847 5845 5842 5839 5837 5835 5833 5831 5828 5826 5823 5820 5818 5815 5812 5809 5806 5803 5800
5883 5883 5884 5884 5884 5884 5884 5884 5884 5885 5884 5882 5881 5879 5878 5876 5875 5874 5874 5873 5872 5872 5873 5873 5872 5871 5869 5867 5867 5867 5866 5865 5864 5864 5863 5862 5859 5857 5855 5853 5851 5849 5848 5845 5842 5840 5837 5834 5832 5830 5828 5825 5823 5820 5818 5815 5813 5810 5807 5804 5801 5798 5795
5880 5880 5880 5880 5881 5882 5881 5880 5880 5880 5880 5878 5876 5874 5873 5872 5870 5870 5870 5868 5867 5868 5869 5870 5869 5867 5865 5865 5865 5865 5863 5862 5862 5861 5860 5858 5856 5853 5851 5849 5847 5845 5843 5841 5838 5835 5832 5829 5827 5825 5822 5820 5818 5816 5813 5810 5808 5805 5802 5798 5796 5793 5790
5878 5877 5876 5877 5878 5879 5879 5878 5877 5876 5875 5875 5873 5871 5869 5867 5866 5865 5864 5862 5862 5863 5864 5865 5865 5863 5862 5862 5862 5861 5860 5860 5859 5858 5856 5854 5851 5849 5847 5845 5843 5841 5838 5835 5833 5830 5827 5825 5823 5820 5817 5815 5813 5810 5808 5805 5803 5800 5797 5794 5791 5788 5785
5875 5874 5873 5873 5873 5874 5874 5875 5875 5874 5872 5871 5870 5868 5866 5863 5862 5861 5859 5856 5855 5856 5857 5858 5859 5858 5858 5858 5858 5857 5856 5856 5855 5854 5852 5849 5846 5844 5842 5841 5838 5836 5833 5831 5828 5825 5822 5820 5818 5816 5813 5810 5807 5805 5803 5800 5798 5795 5792 5789 5786 5783 5780
5874 5872 5871 5870 5870 5870 5870 5870 5871 5870 5869 5868 5867 5865 5862 5860 5859 5856 5852 5850 5850 5850 5851 5852 5853 5854 5854 5853 5852 5851 5850 5850 5850 5848 5846 5843 5841 5839 5837 5835 5833 5831 5829 5827 5823 5820 5818 5816 5814 5811 5808 5805 5803 5801 5798 5796 5793 5790 5787 5784 5781 5778 5775
5872 5870 5869 5868 5867 5867 5867 5867 5867 5866 5864 5864 5862 5860 5858 5856 5853 5851 5849 5849 5850 5849 5847 5848 5850 5849 5846 5845 5845 5844 5844 5845 5844 5841 5839 5837 5835 5833 5832 5830 5829 5827 5824 5822 5818 5815 5813 5811 5810 5807 5804 5802 5799 5796 5794 5791 5788 5785 5782 5779 5776 5773 5770
5869 5867 5867 5866 5865 5864 5863 5863 5864 5862 5860 5859 5857 5855 5853 5850 5848 5849 5850 5850 5848 5846 5844 5843 5843 5841 5838 5838 5840 5839 5839 5839 5837 5834 5832 5830 5829 5828 5827 5826 5824 5822 5819 5817 5813 5810 5808 5807 5805 5803 5801 5798 5795 5792 5790 5787 5783 5780 5777 5774 5771 5768 5765
5865 5864 5864 5863 5862 5861 5859 5858 5859 5858 5856 5854 5851 5849 5847 5845 5845 5847 5847 5845 5842 5840 5838 5837 5836 5835 5835 5835 5836 5836 5834 5833 5831 5828 5826 5825 5825 5824 5823 5821 5819 5817 5815 5811 5808 5805 5804 5802 5800 5798 5797 5794 5791 5788 5786 5783 5779 5776 5773 5770 5767 5764 5762
5860 5860 5859 5859 5858 5858 5856 5855 5854 5852 5850 5848 5845 5843 5843 5842 5842 5842 5840 5837 5835 5833 5832 5831 5831 5830 5831 5831 5831 5831 5830 5828 5826 5824 5822 5822 5821 5820 5818 5817 5815 5812 5809 5806 5803 5801 5799 5798 5796 5794 5792 5790 5787 5785 5782 5779 5776 5773 5769 5766 5763 5761 5758
5855 5856 5855 5855 5855 5854 5853 5852 5850 5847 5845 5842 5840 5839 5839 5838 5837 5836 5834 5831 5829 5828 5828 5827 5827 5826 5826 5826 5828 5828 5826 5823 5821 5820 5819 5818 5817 5816 5814 5812 5809 5807 5804 5800 5798 5796 5795 5793 5791 5789 5787 5785 5783 5781 5777 5775 5772 5769 5766 5762 5759 5756 5753
5851 5852 5850 5850 5851 5850 5849 5847 5844 5841 5840 5838 5837 5836 5833 5829 5828 5828 5828 5826 5824 5823 5823 5822 5822 5822 5822 5823 5824 5823 5821 5819 5817 5816 5815 5814 5813 5812 5809 5807 5804 5801 5798 5796 5794 5792 5790 5789 5787 5785 5783 5781 5779 5776 5773 5770 5767 5764 5761 5758 5755 5752 5748
5846 5848 5847 5846 5845 5843 5843 5842 5841 5838 5837 5836 5835 5832 5827 5824 5822 5822 5822 5820 5818 5817 5817 5818 5818 5819 5819 5819 5819 5818 5816 5814 5813 5812 5811 5810 5809 5807 5805 5801 5798 5796 5794 5792 5790 5788 5786 5784 5782 5780 5778 5776 5774 5771 5768 5765 5762 5759 5755 5752 5749 5746 5743
5840 5842 5843 5841 5839 5838 5839 5840 5838 5835 5833 5833 5832 5828 5827 5826 5824 5820 5817 5816 5816 5815 5814 5814 5815 5815 5815 5815 5814 5812 5810 5809 5807 5807 5806 5805 5804 5802 5799 5796 5793 5791 5790 5788 5786 5784 5782 5779 5777 5775 5772 5770 5768 5765 5762 5760 5757 5754 5750 5747 5744 5741 5738
5834 5835 5836 5835 5834 5835 5836 5836 5834 5830 5829 5830 5828 5825 5824 5823 5821 5819 5817 5815 5815 5814 5812 5811 5811 5811 5811 5810 5808 5806 5804 5803 5802 5801 5801 5800 5798 5796 5793 5790 5789 5788 5786 5784 5782 5780 5777 5774 5772 5770 5767 5765 5763 5759 5756 5754 5751 5748 5745 5742 5739 5735 5732
5830 5829 5829 5830 5831 5832 5832 5831 5829 5827 5826 5825 5823 5821 5819 5816 5814 5814 5814 5812 5811 5810 5809 5808 5808 5807 5806 5803 5802 5801 5799 5798 5798 5797 5796 5795 5793 5791 5788 5787 5786 5784 5782 5780 5777 5775 5772 5769 5767 5766 5763 5760 5757 5754 5751 5748 5745 5742 5739 5737 5734 5730 5727
5827 5824 5823 5825 5827 5827 5827 5825 5824 5823 5822 5820 5818 5816 5815 5813 5810 5810 5809 5808 5808 5807 5806 5805 5803 5802 5801 5798 5797 5797 5796 5795 5794 5793 5792 5790 5788 5786 5785 5783 5782 5780 5777 5775 5772 5769 5767 5764 5762 5761 5758 5755 5752 5749 5746 5742 5739 5735 5733 5730 5728 5725 5722
5822 5820 5819 5819 5820 5820 5820 5820 5818 5817 5816 5815 5813 5811 5810 5810 5808 5807 5806 5805 5804 5804 5803 5800 5798 5797 5795 5794 5794 5794 5793 5791 5789 5788 5786 5785 5783 5781 5780 5779 5777 5775 5773 5770 5766 5764 5761 5758 5756 5755 5753 5750 5746 5744 5741 5737 5734 5730 5727 5725 5723 5720 5717
5816 5816 5815 5814 5813 5813 5813 5813 5812 5811 5811 5810 5809 5806 5804 5805 5805 5804 5803 5801 5799 5798 5797 5795 5794 5793 5793 5792 5791 5790 5788 5785 5783 5781 5780 5779 5777 5776 5774 5773 5772 5770 5767 5764 5761 5759 5756 5753 5751 5749 5747 5745 5741 5738 5735 5732 5729 5726 5723 5721 5718 5716 5713
5810 5810 5810 5809 5808 5807 5806 5806 5805 5804 5805 5805 5804 5800 5798 5799 5799 5799 5797 5795 5793 5792 5791 5790 5791 5790 5789 5788 5786 5784 5782 5779 5777 5775 5774 5773 5771 5770 5769 5767 5765 5763 5761 5758 5756 5754 5751 5748 5746 5744 5741 5739 5736 5733 5730 5727 5724 5721 5719 5716 5714 5711 5708
5805 5804 5804 5804 5803 5802 5801 5800 5799 5799 5799 5800 5799 5795 5793 5793 5793 5792 5791 5789 5788 5788 5787 5787 5786 5785 5784 5783 5781 5778 5776 5773 5771 5770 5768 5767 5766 5764 5763 5761 5759 5757 5755 5753 5750 5747 5745 5742 5740 5738 5735 5732 5729 5726 5724 5721 5718 5716 5714 5712 5710 5707 5705
5802 5800 5799 5799 5798 5797 5797 5796 5794 5793 5794 5794 5792 5791 5789 5789 5788 5787 5786 5785 5784 5783 5782 5782 5780 5779 5778 5776 5775 5773 5771 5769 5767 5766 5764 5763 5762 5760 5759 5757 5754 5752 5749 5746 5743 5740 5738 5735 5733 5731 5729 5726 5723 5720 5718 5715 5713 5711 5709 5708 5706 5703 5701
5797 5796 5795 5794 5793 5792 5792 5791 5789 5789 5788 5787 5786 5785 5785 5784 5783 5782 5781 5780 5779 5778 5777 5776 5775 5773 5771 5770 5769 5768 5766 5765 5764 5763 5761 5760 5758 5756 5754 5752 5750 5747 5743 5739 5736 5733 5730 5727 5725 5723 5722 5720 5717 5715 5713 5710 5709 5707 5705 5704 5702 5700 5697
5792 5791 5790 5790 5788 5787 5787 5786 5785 5784 5783 5783 5782 5780 5779 5779 5778 5776 5774 5773 5774 5773 5772 5770 5769 5767 5766 5765 5765 5764 5763 5761 5760 5759 5758 5756 5753 5751 5748 5746 5743 5740 5735 5732 5729 5726 5723 5721 5719 5717 5715 5713 5711 5710 5708 5706 5705 5703 5702 5700 5698 5696 5694
5786 5785 5784 5784 5783 5782 5782 5781 5780 5779 5778 5777 5777 5776 5775 5774 5773 5770 5768 5767 5767 5767 5765 5764 5763 5761 5761 5761 5761 5760 5759 5757 5755 5754 5753 5750 5747 5745 5741 5738 5735 5732 5728 5726 5723 5720 5718 5716 5714 5712 5710 5708 5707 5705 5704 5702 5701 5700 5698 5697 5695 5693 5691
5782 5781 5779 5778 5778 5778 5777 5775 5773 5772 5772 5771 5771 5770 5770 5769 5768 5765 5763 5762 5761 5760 5759 5758 5757 5756 5755 5755 5755 5754 5752 5750 5747 5746 5744 5742 5741 5738 5734 5730 5728 5725 5723 5721 5718 5715 5713 5711 5709 5707 5705 5704 5702 5701 5700 5698 5697 5696 5695 5693 5691 5690 5688
5777 5776 5774 5773 5773 5772 5771 5770 5768 5766 5766 5766 5766 5765 5765 5764 5762 5759 5757 5756 5755 5754 5753 5752 5751 5749 5748 5748 5746 5744 5743 5741 5740 5738 5736 5734 5733 5732 5729 5725 5722 5720 5718 5716 5714 5711 5709 5707 5705 5704 5702 5700 5698 5696 5695 5694 5693 5692 5691 5689 5687 5686 5684
Wind_Speed
14 17 17 16 17 16 15 15 18 20 18 17 18 20 21 21 21 24 26 26 26 27 27 27 27 26 26 26 27 26 24 24 25 25 25 25 25 26 26 27 28 29 29 29 29 28 28 29 29 30 31 32 33 34 35 36 36 37 38 38 39 40 41
17 21 23 22 19 16 14 15 17 19 18 17 18 19 20 21 21 22 24 25 25 25 25 25 26 26 26 25 26 26 24 23 25 26 26 26 26 27 27 28 29 30 30 30 29 29 28 29 29 30 31 33 34 35 35 36 36 37 38 38 39 40 41
29 28 28 26 22 18 16 15 16 16 17 18 19 20 20 20 20 21 22 23 22 22 22 23 24 25 24 23 23 24 24 23 25 26 26 26 27 27 28 28 29 29 30 30 29 29 28 28 29 30 32 33 34 35 36 36 37 37 38 39 40 40 41
33 31 31 28 25 23 18 16 16 16 17 19 20 20 20 19 19 20 21 21 20 19 20 22 24 25 24 23 24 25 25 24 25 26 27 27 26 27 28 28 28 29 30 30 29 28 28 28 29 31 32 34 35 36 36 36 37 38 39 40 41 41 42
29 29 31 30 28 24 19 16 16 16 18 19 19 20 20 19 18 19 20 20 20 18 19 22 25 26 25 24 24 24 25 25 25 26 27 27 26 27 28 28 28 28 29 29 29 29 29 30 31 32 34 35 36 37 38 38 38 39 39 40 41 42 43
26 25 23 25 26 24 19 16 15 15 17 19 19 19 20 18 18 19 19 20 20 20 20 23 25 27 26 24 23 23 24 25 25 26 26 25 26 28 29 29 29 28 29 29 29 30 31 32 33 33 35 36 38 39 39 40 40 40 40 40 41 42 43
29 26 21 20 23 23 21 17 15 16 17 18 19 20 21 20 19 19 20 21 22 22 22 23 25 26 26 24 22 22 25 26 25 25 24 24 26 29 30 30 30 29 28 28 29 30 30 31 32 33 34 36 38 39 39 40 40 40 41 41 41 42 43
29 28 26 23 21 21 21 19 17 17 17 18 20 22 23 23 22 21 22 23 25 24 24 24 25 26 25 24 22 23 26 27 26 25 24 25 28 30 31 31 31 30 28 28 28 28 29 30 32 33 35 36 38 39 40 40 41 41 42 42 42 42 43
30 28 29 27 21 18 19 18 17 17 18 20 23 25 25 25 25 23 23 25 27 27 26 25 26 26 26 26 24 25 27 27 27 26 25 28 31 31 31 32 32 30 28 28 28 28 29 31 33 35 36 38 39 40 41 41 42 42 43 43 43 42 43
31 29 30 29 23 18 18 18 19 19 21 23 26 27 27 27 27 26 26 28 30 30 28 25 26 27 28 28 26 26 27 27 27 26 26 29 31 31 32 32 31 30 29 29 29 29 30 33 35 37 38 40 40 41 42 42 42 42 43 44 43 43 43
32 30 30 28 24 21 20 20 20 22 24 26 27 28 30 31 31 29 29 29 31 32 29 26 25 27 29 30 28 27 28 28 27 26 27 30 31 31 32 32 32 31 30 30 30 31 32 34 37 39 40 41 42 42 43 43 43 43 44 45 44 43 44
32 29 27 25 24 23 23 22 22 22 24 27 28 30 31 33 33 32 31 31 32 33 30 26 25 27 28 30 29 28 29 29 27 26 28 31 32 32 32 33 32 32 31 31 31 32 33 35 38 40 42 43 44 45 46 45 44 44 44 44 44 44 45
27 24 25 25 24 24 26 26 26 25 26 28 31 32 32 33 34 34 33 34 34 33 30 27 26 26 27 28 29 28 28 27 26 27 30 32 33 33 33 33 33 32 31 31 32 33 35 37 40 42 44 44 45 46 46 45 45 45 45 45 45 46 46
23 23 24 24 23 23 25 27 29 29 29 30 33 34 34 34 36 35 35 36 36 33 30 28 26 26 27 27 28 27 26 24 25 28 31 33 33 33 33 33 32 31 31 32 34 35 37 39 41 43 44 45 45 46 46 46 47 47 45 45 46 46 47
25 27 28 27 25 23 23 25 29 32 33 33 35 36 35 36 37 36 36 38 37 35 33 30 28 27 28 28 27 26 24 23 26 29 31 32 33 33 32 32 31 31 32 33 35 37 38 40 42 44 45 46 46 47 47 47 47 46 45 46 46 46 46
27 28 29 29 28 28 27 27 28 31 34 35 34 34 35 37 37 37 37 39 39 38 36 33 31 30 29 28 27 25 24 25 27 29 30 32 33 33 32 31 31 32 33 35 37 39 40 42 44 45 46 46 47 47 47 47 46 46 46 46 46 46 47
28 29 31 32 32 33 33 33 33 33 33 34 34 34 35 36 36 37 39 40 40 40 40 38 35 31 30 29 28 26 23 24 26 28 30 32 32 32 32 32 33 34 35 36 38 40 42 43 45 46 46 46 47 48 47 46 46 45 45 46 47 47 47
28 30 33 34 35 34 34 35 36 36 35 34 35 35 34 34 34 36 37 38 38 40 44 43 37 33 33 33 31 26 22 25 27 29 31 31 31 33 34 34 35 36 37 38 40 42 43 45 46 46 46 47 48 48 48 47 47 46 46 47 47 48 46
27 30 32 33 35 36 37 37 35 36 37 35 36 35 34 34 35 34 34 35 34 35 38 40 41 42 41 38 32 27 24 28 30 31 32 32 33 34 35 36 37 37 38 39 41 43 45 46 47 47 47 48 49 49 48 48 48 47 46 47 47 47 44
29 31 33 34 34 35 38 37 35 34 35 35 36 36 36 36 35 32 32 33 33 33 32 33 37 42 42 38 32 27 28 33 32 32 32 33 35 36 37 38 38 38 39 40 42 44 46 47 48 49 48 48 49 50 49 49 48 47 47 47 46 43 39
34 35 35 35 34 35 37 38 36 34 34 35 37 37 37 35 32 30 32 34 36 36 35 33 34 36 35 32 29 28 34 36 34 32 33 35 37 38 39 39 39 39 40 41 43 45 46 48 49 50 50 50 49 49 48 47 47 46 46 46 43 38 35
40 38 37 35 35 36 37 37 35 33 35 38 39 39 38 36 33 32 34 37 37 37 35 33 32 31 26 24 26 32 36 36 34 33 34 36 38 39 40 40 40 40 39 40 43 46 47 49 50 50 50 50 48 45 45 46 46 45 45 44 42 39 37
41 38 37 36 36 36 36 35 34 35 38 40 40 39 40 41 38 33 31 34 38 37 32 27 27 27 25 25 30 35 35 34 34 34 35 37 38 39 40 41 40 38 38 41 44 47 48 49 50 51 50 49 46 45 47 48 47 46 46 44 43 42 41
39 36 35 34 33 34 34 33 34 38 40 39 39 41 43 42 35 29 30 36 39 37 32 28 29 30 30 32 34 34 32 33 33 34 36 37 38 39 40 40 39 38 39 43 46 47 48 49 50 51 50 48 46 47 49 48 46 45 46 46 45 44 42
40 35 31 31 31 33 33 32 34 39 39 36 37 41 41 36 29 27 32 34 31 29 28 29 31 32 32 33 34 32 32 33 35 36 37 37 38 39 39 38 38 39 43 46 46 46 47 49 49 49 49 47 46 47 48 47 46 46 46 46 45 44 43
40 37 33 32 33 34 34 33 35 38 38 37 38 40 39 36 33 31 30 28 27 30 32 32 33 34 33 32 32 32 33 35 36 38 38 38 38 37 37 38 40 43 45 46 45 46 48 48 46 46 47 47 47 47 47 47 46 46 46 45 44 44 43
39 39 36 34 33 33 34 34 35 37 38 38 38 38 38 39 39 35 32 33 38 40 37 36 36 34 32 32 33 34 35 37 38 39 39 38 37 36 40 43 44 45 46 46 47 48 47 46 45 45 47 47 47 47 46 46 46 46 45 44 42 43 43
37 39 38 35 33 32 32 34 35 36 37 38 39 39 38 40 40 39 38 40 41 39 37 37 36 32 32 35 35 36 37 38 39 39 39 38 37 39 43 45 44 45 48 49 51 48 45 45 47 48 48 47 47 47 46 46 46 45 44 42 41 42 42
38 39 39 38 37 35 34 34 35 36 37 37 39 40 39 38 38 38 39 41 40 39 41 41 37 34 36 36 36 37 38 39 40 41 40 41 41 43 45 45 46 51 53 51 49 46 46 49 50 49 48 47 47 47 46 45 44 43 42 41 40 41 41
40 40 41 41 41 40 38 36 37 38 38 39 40 42 41 38 35 36 37 38 39 39 40 39 36 35 36 36 37 39 40 41 42 43 44 44 45 46 47 49 51 54 52 48 47 48 51 52 51 49 47 47 47 47 45 44 43 41 41 40 39 40 40
42 42 41 40 40 40 40 39 40 40 40 40 41 44 43 38 35 37 39 38 37 38 39 39 37 36 35 36 38 41 41 43 45 46 46 47 48 49 51 53 55 54 51 50 51 53 54 52 50 49 48 47 46 46 45 44 42 41 40 39 39 39 39
40 41 40 39 38 40 41 41 42 43 42 41 41 43 40 36 36 40 41 38 36 38 38 38 37 35 35 37 39 41 43 45 46 47 48 49 51 53 54 55 55 54 53 54 54 54 53 52 50 49 47 46 46 45 44 43 42 41 40 38 38 38 37
37 39 40 40 40 40 41 42 42 42 41 40 39 37 35 35 38 41 39 37 37 37 35 34 33 34 35 38 41 42 44 46 46 47 49 51 53 54 54 54 54 54 55 55 54 53 52 51 49 48 46 45 45 45 44 42 41 40 39 37 37 36 35
37 38 39 39 40 41 41 40 41 41 41 41 39 37 35 37 41 42 39 38 37 36 34 33 33 35 37 40 43 45 46 46 47 48 49 51 51 51 52 52 53 54 55 55 53 52 51 50 49 47 46 45 44 44 43 42 41 39 37 36 35 34 32
37 38 38 38 39 40 39 39 40 42 43 42 41 40 39 41 43 44 42 40 38 38 37 36 36 38 40 42 44 46 46 47 48 49 49 49 49 50 51 52 52 52 54 53 52 51 50 49 48 46 45 44 43 43 42 41 40 38 36 35 34 32 31
37 38 38 38 38 39 40 42 43 45 45 43 42 42 42 43 44 43 42 40 39 37 37 36 37 40 42 44 46 47 47 48 48 48 48 48 49 50 51 51 51 52 53 51 50 49 48 47 45 44 43 42 42 41 40 40 38 36 34 34 32 30 29
36 37 38 38 39 40 42 44 45 45 45 44 43 43 42 43 44 43 42 40 39 37 38 40 42 43 45 47 48 48 48 48 48 48 49 49 49 49 50 50 51 52 51 50 49 48 47 45 43 41 41 41 40 39 39 38 37 35 33 33 31 29 28
38 39 40 41 42 42 43 44 45 45 44 43 42 42 42 42 43 43 41 40 40 41 43 45 46 46 47 49 49 48 48 48 49 49 49 49 49 49 49 50 50 50 50 49 48 46 44 42 40 39 39 39 39 38 38 37 36 34 32 32 30 28 27
Wind_Direction
262 272 281 283 283 283 282 280 276 275 277 278 275 273 274 273 271 273 276 279 282 285 286 286 285 287 289 290 289 290 292 294 294 294 296 299 303 307 309 311 312 313 312 311 310 310 309 310 310 311 313 313 314 314 314 314 313 313 312 312 311 310 310
273 277 283 285 285 284 282 281 277 273 276 278 274 273 274 275 275 277 281 285 288 288 287 285 286 288 291 290 288 288 291 293 293 293 296 299 301 305 308 312 313 312 311 310 310 310 309 310 311 312 313 313 313 313 313 312 312 312 312 311 311 311 310
292 290 288 286 286 288 285 281 276 272 274 277 276 276 278 278 279 281 284 287 289 289 286 285 288 291 294 295 292 290 290 291 293 294 296 299 302 307 310 312 312 311 310 310 310 309 310 310 311 312 312 312 312 312 312 312 311 312 312 312 312 312 312
297 298 294 291 291 293 291 279 271 265 266 272 276 278 280 280 282 283 285 286 288 286 284 286 290 293 295 296 294 292 291 291 293 294 296 299 303 306 309 311 312 312 311 310 309 309 309 310 311 311 311 311 312 312 312 312 312 313 313 314 314 313 313
296 298 295 293 294 294 289 276 268 262 260 267 275 278 280 281 282 283 283 284 286 287 286 288 292 294 295 295 295 295 294 293 294 295 296 299 302 305 309 312 314 314 312 310 310 309 310 311 312 312 312 312 313 313 314 314 314 314 314 314 314 314 313
292 297 295 292 290 288 283 277 274 267 263 269 276 279 282 281 280 281 282 285 288 291 292 291 292 293 295 298 298 297 297 297 297 297 298 301 305 309 312 314 315 315 312 311 311 311 312 312 312 313 313 314 315 315 315 315 314 314 315 314 314 314 314
292 297 300 295 290 287 282 276 274 270 269 275 280 283 284 284 283 283 285 288 291 294 295 292 291 292 296 301 301 298 297 299 301 300 299 304 310 313 313 314 315 314 312 311 311 312 312 312 313 314 315 315 315 315 314 314 315 316 316 315 315 315 315
293 298 303 299 292 289 285 277 274 273 273 278 283 286 287 287 289 289 289 290 292 295 295 293 292 294 298 302 299 296 297 301 305 304 303 310 316 316 315 315 314 312 311 310 310 311 312 314 316 318 319 318 317 316 316 317 317 317 316 315 315 315 315
292 298 301 298 291 289 289 285 283 281 280 283 287 289 289 290 291 292 291 292 294 296 296 294 295 298 300 299 295 294 298 305 309 309 309 315 318 317 315 314 311 309 308 308 308 309 311 313 315 318 320 321 320 320 319 318 317 316 316 315 316 316 316
292 294 292 289 285 283 285 286 286 286 287 290 291 292 294 296 296 295 293 295 296 296 296 296 298 299 298 294 292 295 301 307 310 308 309 315 317 315 314 311 308 307 307 307 307 308 310 313 315 319 321 321 321 319 318 317 317 317 316 315 316 317 317
287 289 288 284 281 281 282 283 284 288 293 295 295 296 298 299 299 297 296 296 296 294 295 298 299 298 296 293 292 296 302 307 307 304 306 311 313 313 312 309 307 308 307 307 307 310 314 317 320 321 321 320 319 318 318 318 318 317 316 316 316 317 318
286 284 281 282 285 288 291 293 293 295 296 297 297 298 299 300 300 299 297 296 293 293 295 298 296 295 294 292 293 298 303 305 303 299 302 307 310 310 310 309 308 309 308 308 311 316 320 321 322 321 321 321 320 320 319 318 317 317 316 316 317 318 318
289 282 276 279 287 293 298 300 300 300 300 301 303 303 303 303 302 299 298 295 292 292 293 294 293 292 289 289 292 297 300 300 298 296 300 305 308 309 310 310 310 310 310 311 315 319 321 321 321 321 321 322 322 320 318 316 315 316 316 317 318 319 318
291 289 283 281 284 288 294 298 302 304 304 306 308 308 306 303 300 299 297 293 291 290 291 290 288 286 286 287 291 293 293 294 295 296 299 303 305 307 309 310 310 310 311 313 317 319 321 321 321 322 322 322 321 319 317 316 316 316 317 318 319 318 317
291 291 287 285 286 287 291 297 303 306 307 308 308 307 305 301 298 298 296 291 288 287 287 287 283 282 284 286 287 288 287 292 297 298 299 301 303 305 308 308 308 311 313 316 319 320 321 322 322 323 322 321 320 319 317 316 316 317 317 317 317 317 316
286 290 288 288 291 295 297 298 302 304 305 306 306 304 301 298 297 297 292 288 285 283 283 280 277 278 282 284 286 284 285 292 297 298 299 300 302 305 308 308 310 313 315 318 319 320 321 322 323 323 322 321 320 319 317 317 317 317 316 316 316 316 315
282 286 288 289 292 295 297 299 300 301 301 301 302 300 296 293 293 290 287 285 284 282 279 275 274 278 280 281 278 274 281 292 296 297 298 299 303 308 309 310 312 314 316 317 319 320 321 322 322 322 321 320 319 318 317 317 317 316 315 315 315 315 315
277 278 281 285 287 288 291 295 299 301 301 299 298 296 291 288 285 284 286 289 289 286 280 275 275 275 276 277 271 265 282 301 301 300 302 304 308 311 311 312 314 314 315 316 318 320 320 321 321 320 320 319 317 316 316 316 315 315 314 315 315 315 316
268 273 277 279 281 284 290 294 297 299 300 299 295 291 287 283 281 285 291 294 295 292 286 280 277 273 275 277 268 265 291 308 304 303 307 309 310 311 311 313 313 313 314 316 318 319 320 320 319 318 318 317 316 315 315 314 314 313 314 314 314 315 317
267 274 280 281 283 288 293 297 300 299 297 295 290 287 285 284 286 291 293 291 289 289 286 282 278 276 277 275 266 272 299 308 305 306 308 308 309 310 311 311 310 310 314 316 318 319 320 319 318 316 316 316 316 315 314 313 312 312 313 314 314 315 319
276 281 283 284 287 291 294 297 298 295 290 288 285 284 285 286 287 290 289 285 284 283 281 281 283 283 278 268 267 286 302 305 305 307 306 306 308 309 309 309 307 310 314 317 318 319 319 317 315 315 316 317 316 314 312 310 310 311 313 313 314 315 317
277 282 285 285 287 289 291 293 291 287 283 283 284 286 288 286 285 285 284 282 284 287 287 286 287 287 279 270 281 298 303 303 306 306 305 306 307 308 308 307 308 312 316 318 319 318 317 315 314 314 316 317 316 312 310 310 310 310 311 312 312 311 311
274 279 282 283 283 282 282 283 282 281 281 283 286 287 286 284 281 278 276 277 283 288 288 283 283 284 280 282 295 303 303 303 304 304 305 307 307 308 309 308 309 312 315 318 318 316 314 313 313 314 316 316 313 309 310 311 309 308 309 310 309 309 308
274 277 277 279 278 276 275 276 279 282 284 287 291 290 285 282 278 276 277 278 280 282 279 276 282 287 284 287 297 303 302 303 304 304 306 308 309 309 308 308 309 311 313 315 315 314 313 313 314 314 315 314 310 307 308 309 307 306 308 309 310 310 309
278 279 277 275 274 274 276 280 283 285 287 292 295 294 291 286 281 288 291 284 280 282 282 283 289 289 286 291 299 301 300 303 305 305 307 310 311 310 308 309 309 309 310 312 312 312 312 312 313 313 313 312 309 307 307 308 307 307 308 310 310 311 312
281 282 279 275 275 278 282 285 286 286 289 295 296 296 294 286 281 289 291 282 281 289 292 296 297 292 288 293 299 300 301 303 303 305 308 312 311 310 310 310 309 307 308 310 312 312 311 310 312 312 311 310 308 307 307 307 307 306 308 310 311 312 314
279 281 280 279 282 285 287 289 288 288 292 297 297 296 293 288 288 290 287 285 291 294 294 298 298 292 290 295 299 301 302 301 301 304 308 310 310 310 311 310 308 306 307 309 312 312 310 309 311 311 310 309 307 307 307 306 306 306 308 311 312 312 314
279 281 283 285 287 288 289 289 289 291 295 297 298 298 296 292 291 290 288 292 296 293 291 294 293 290 292 297 299 300 300 299 300 304 306 307 307 309 310 311 309 307 308 310 311 310 309 310 310 310 310 308 307 306 306 305 306 307 309 310 311 312 313
281 283 287 290 291 290 289 288 288 291 294 295 296 297 295 288 283 283 289 293 290 285 288 292 293 291 292 293 295 298 298 299 301 303 304 305 305 305 307 308 309 309 309 309 309 308 309 310 310 310 309 307 306 306 305 305 306 307 309 310 311 313 314
286 286 288 289 290 291 291 290 290 291 294 295 295 294 292 284 277 280 287 286 281 283 289 291 291 290 287 287 293 298 299 300 301 302 303 303 303 303 305 307 308 308 308 308 307 306 308 309 309 308 307 306 305 304 303 304 306 307 308 310 311 313 316
288 287 287 288 289 290 290 291 291 292 294 297 296 293 289 280 275 282 286 280 279 285 287 286 286 284 281 285 295 300 300 300 301 301 302 303 303 305 307 308 307 306 306 307 306 306 307 308 307 306 306 305 304 303 302 304 306 307 308 310 312 314 317
284 286 288 289 289 289 290 292 294 295 297 300 299 295 286 274 278 291 292 284 283 286 286 284 282 278 279 287 296 300 299 299 301 302 303 304 305 305 306 305 305 306 306 306 305 305 306 306 306 306 306 305 303 302 303 305 306 307 308 310 313 315 318
281 284 287 289 289 290 291 294 296 297 299 301 300 296 286 277 284 294 292 282 282 285 284 282 279 277 281 288 294 298 299 299 301 302 302 302 302 302 303 303 303 305 305 304 304 305 306 307 307 307 307 304 303 303 304 305 307 308 308 310 313 316 318
281 283 287 289 291 292 293 294 295 296 298 298 296 293 286 280 284 289 284 276 278 282 283 283 282 281 283 287 292 297 298 297 297 297 297 298 299 300 301 302 302 303 303 303 305 307 308 309 309 308 307 305 303 303 304 306 307 307 308 310 313 315 317
284 286 288 289 290 291 291 292 293 293 295 295 292 288 284 283 286 287 280 274 277 281 282 282 280 277 279 285 291 294 294 292 293 294 295 297 297 298 299 301 301 302 303 305 307 309 310 310 309 308 306 304 303 303 304 306 306 306 308 309 311 313 313
286 287 287 288 288 289 290 291 291 292 293 292 290 287 284 285 288 285 275 273 278 281 280 281 278 274 277 285 291 291 289 290 292 293 294 295 296 298 301 302 303 304 305 307 309 310 309 309 308 306 304 303 302 303 304 305 306 306 306 307 307 308 309
284 285 286 286 288 289 289 290 291 292 292 291 289 287 284 284 287 281 273 273 279 281 281 282 280 276 280 288 291 290 290 292 293 294 295 296 298 301 303 303 304 305 306 308 309 308 307 307 306 305 304 303 304 305 305 305 306 306 305 304 303 304 306
284 285 286 287 289 289 289 289 290 290 289 289 288 285 283 284 286 282 275 276 283 285 284 283 280 280 285 291 293 293 294 294 295 296 298 299 300 301 302 303 305 306 307 308 307 306 305 306 305 304 304 304 305 305 306 306 306 305 303 301 299 300 302